Hourly Weather Abakumovka

Today, 28 September, Monday

Time Temperature Precipitation Wind Pressure Humidity
00:00 +11°C° 0 mm 6 mps 757 mmHg 36%
01:00 +10°C° 0 mm 6 mps 757 mmHg 36%
02:00 +10°C° 0 mm 6 mps 757 mmHg 37%
03:00 +9°C° 0 mm 5 mps 757 mmHg 38%
04:00 +9°C° 0 mm 5 mps 757 mmHg 39%
05:00 +9°C° 0 mm 6 mps 757 mmHg 39%
06:00 +9°C° 0 mm 6 mps 757 mmHg 40%
07:00 +10°C° 0 mm 6 mps 757 mmHg 38%
08:00 +10°C° 0 mm 7 mps 757 mmHg 37%
09:00 +11°C° 0 mm 8 mps 758 mmHg 36%
10:00 +12°C° 0 mm 8 mps 758 mmHg 34%
11:00 +15°C° 0 mm 8 mps 758 mmHg 32%
12:00 +16°C° 0 mm 8 mps 758 mmHg 30%
13:00 +16°C° 0 mm 7 mps 758 mmHg 29%
14:00 +16°C° 0 mm 6 mps 758 mmHg 29%
15:00 +17°C° 0 mm 6 mps 758 mmHg 27%
16:00 +17°C° 0 mm 6 mps 758 mmHg 28%
17:00 +16°C° 0 mm 5 mps 758 mmHg 29%
18:00 +15°C° 0 mm 5 mps 757 mmHg 30%
19:00 +14°C° 0 mm 5 mps 758 mmHg 31%
20:00 +14°C° 0 mm 5 mps 758 mmHg 32%
21:00 +13°C° 0 mm 5 mps 758 mmHg 33%
22:00 +12°C° 0 mm 5 mps 758 mmHg 35%
23:00 +12°C° 0 mm 4 mps 758 mmHg 37%

Tomorrow, 29 September, Tuesday

Time Temperature Precipitation Wind Pressure Humidity
00:00 +11°C° 0 mm 4 mps 758 mmHg 39%
01:00 +11°C° 0 mm 4 mps 758 mmHg 39%
02:00 +10°C° 0 mm 4 mps 758 mmHg 40%
03:00 +10°C° 0 mm 4 mps 758 mmHg 41%
04:00 +10°C° 0 mm 4 mps 758 mmHg 41%
05:00 +10°C° 0 mm 4 mps 758 mmHg 41%
06:00 +8°C° 0 mm 5 mps 758 mmHg 41%
07:00 +10°C° 0 mm 5 mps 758 mmHg 40%
08:00 +11°C° 0 mm 6 mps 758 mmHg 38%
09:00 +12°C° 0 mm 7 mps 758 mmHg 37%
10:00 +14°C° 0 mm 7 mps 757 mmHg 34%
11:00 +16°C° 0 mm 7 mps 757 mmHg 31%
12:00 +17°C° 0 mm 7 mps 757 mmHg 27%
13:00 +17°C° 0 mm 7 mps 756 mmHg 27%
14:00 +18°C° 0 mm 7 mps 756 mmHg 26%
15:00 +18°C° 0 mm 7 mps 756 mmHg 25%
16:00 +17°C° 0 mm 6 mps 756 mmHg 27%
17:00 +16°C° 0 mm 5 mps 755 mmHg 29%
18:00 +15°C° 0 mm 4 mps 755 mmHg 31%
19:00 +14°C° 0 mm 5 mps 755 mmHg 32%
20:00 +14°C° 0 mm 5 mps 755 mmHg 33%
21:00 +13°C° 0 mm 5 mps 755 mmHg 35%
22:00 +13°C° 0 mm 5 mps 754 mmHg 37%
23:00 +13°C° 0 mm 5 mps 754 mmHg 40%

Day after tomorrow, 30 September, Wednesday

Time Temperature Precipitation Wind Pressure Humidity
00:00 +12°C° 0 mm 5 mps 754 mmHg 43%
01:00 +12°C° 0 mm 5 mps 754 mmHg 46%
02:00 +12°C° 0 mm 5 mps 754 mmHg 49%
03:00 +12°C° 0 mm 5 mps 754 mmHg 52%
04:00 +12°C° 0 mm 5 mps 754 mmHg 55%
05:00 +10°C° 0 mm 5 mps 754 mmHg 58%
06:00 +10°C° 0 mm 6 mps 753 mmHg 61%
07:00 +11°C° 0 mm 6 mps 753 mmHg 56%
08:00 +14°C° 0 mm 6 mps 754 mmHg 50%
09:00 +15°C° 0 mm 7 mps 754 mmHg 45%
10:00 +16°C° 0 mm 7 mps 753 mmHg 41%
11:00 +18°C° 0 mm 8 mps 753 mmHg 38%
12:00 +20°C° 0 mm 8 mps 753 mmHg 34%
13:00 +21°C° 0 mm 8 mps 753 mmHg 33%
14:00 +21°C° 0 mm 8 mps 753 mmHg 32%
15:00 +22°C° 0 mm 8 mps 752 mmHg 31%
16:00 +20°C° 0 mm 7 mps 752 mmHg 33%
17:00 +19°C° 0 mm 6 mps 752 mmHg 36%
18:00 +17°C° 0 mm 5 mps 752 mmHg 38%
19:00 +16°C° 0 mm 5 mps 752 mmHg 39%
20:00 +16°C° 0 mm 5 mps 753 mmHg 40%
21:00 +15°C° 0 mm 5 mps 753 mmHg 41%
22:00 +15°C° 0 mm 5 mps 753 mmHg 42%
23:00 +14°C° 0 mm 5 mps 753 mmHg 42%

1 October, Thursday

Time Temperature Precipitation Wind Pressure Humidity
00:00 +14°C° 0 mm 5 mps 753 mmHg 43%
01:00 +14°C° 0 mm 5 mps 753 mmHg 46%
02:00 +13°C° 0 mm 5 mps 753 mmHg 48%
03:00 +13°C° 0 mm 5 mps 753 mmHg 50%
04:00 +12°C° 0 mm 5 mps 754 mmHg 50%
05:00 +12°C° 0 mm 5 mps 754 mmHg 51%
06:00 +11°C° 0 mm 6 mps 754 mmHg 51%
07:00 +13°C° 0 mm 6 mps 754 mmHg 46%
08:00 +14°C° 0 mm 7 mps 754 mmHg 42%
09:00 +15°C° 0 mm 8 mps 754 mmHg 37%
10:00 +17°C° 0 mm 8 mps 754 mmHg 34%
11:00 +18°C° 0 mm 8 mps 754 mmHg 31%
12:00 +20°C° 0 mm 8 mps 754 mmHg 27%
13:00 +20°C° 0 mm 8 mps 754 mmHg 28%
14:00 +21°C° 0 mm 8 mps 754 mmHg 28%
15:00 +21°C° 0 mm 7 mps 753 mmHg 28%
16:00 +20°C° 0 mm 6 mps 753 mmHg 31%
17:00 +19°C° 0 mm 5 mps 753 mmHg 34%
18:00 +18°C° 0 mm 4 mps 753 mmHg 36%
19:00 +16°C° 0 mm 5 mps 753 mmHg 37%
20:00 +16°C° 0 mm 5 mps 754 mmHg 38%
21:00 +16°C° 0 mm 6 mps 754 mmHg 38%
22:00 +15°C° 0 mm 6 mps 754 mmHg 41%
23:00 +15°C° 0 mm 6 mps 754 mmHg 45%

2 October, Friday

Time Temperature Precipitation Wind Pressure Humidity
00:00 +14°C° 0 mm 6 mps 754 mmHg 48%
01:00 +14°C° 0 mm 5 mps 754 mmHg 52%
02:00 +13°C° 0 mm 5 mps 754 mmHg 57%
03:00 +13°C° 0 mm 5 mps 754 mmHg 61%
04:00 +12°C° 0 mm 5 mps 754 mmHg 63%
05:00 +12°C° 0 mm 5 mps 754 mmHg 65%
06:00 +10°C° 0 mm 5 mps 754 mmHg 66%
07:00 +12°C° 0 mm 5 mps 754 mmHg 63%
08:00 +13°C° 0 mm 6 mps 754 mmHg 60%
09:00 +14°C° 0 mm 6 mps 754 mmHg 57%
10:00 +16°C° 0 mm 6 mps 754 mmHg 52%
11:00 +17°C° 0 mm 7 mps 755 mmHg 47%
12:00 +20°C° 0 mm 7 mps 755 mmHg 43%
13:00 +20°C° 0 mm 7 mps 754 mmHg 42%
14:00 +20°C° 0 mm 7 mps 754 mmHg 41%
15:00 +20°C° 0 mm 6 mps 754 mmHg 40%
16:00 +19°C° 0 mm 6 mps 754 mmHg 42%
17:00 +17°C° 0 mm 5 mps 754 mmHg 44%
18:00 +16°C° 0 mm 5 mps 754 mmHg 46%
19:00 +16°C° 0 mm 5 mps 754 mmHg 46%
20:00 +16°C° 0 mm 5 mps 754 mmHg 46%
21:00 +15°C° 0 mm 6 mps 754 mmHg 46%
22:00 +15°C° 0 mm 5 mps 754 mmHg 46%
23:00 +14°C° 0 mm 5 mps 754 mmHg 45%

3 October, Saturday

Time Temperature Precipitation Wind Pressure Humidity
00:00 +14°C° 0 mm 5 mps 754 mmHg 44%
01:00 +14°C° 0 mm 5 mps 754 mmHg 44%
02:00 +13°C° 0 mm 5 mps 754 mmHg 44%
03:00 +13°C° 0 mm 5 mps 754 mmHg 44%
04:00 +13°C° 0 mm 5 mps 754 mmHg 45%
05:00 +12°C° 0 mm 5 mps 754 mmHg 47%
06:00 +12°C° 0 mm 5 mps 754 mmHg 49%
07:00 +13°C° 0 mm 5 mps 754 mmHg 48%
08:00 +14°C° 0 mm 5 mps 754 mmHg 47%
09:00 +14°C° 0 mm 5 mps 754 mmHg 47%
10:00 +16°C° 0 mm 6 mps 754 mmHg 43%
11:00 +17°C° 0 mm 6 mps 754 mmHg 39%
12:00 +20°C° 0 mm 6 mps 754 mmHg 36%
13:00 +20°C° 0 mm 6 mps 754 mmHg 35%
14:00 +20°C° 0 mm 6 mps 754 mmHg 35%
15:00 +21°C° 0 mm 6 mps 754 mmHg 34%
16:00 +20°C° 0 mm 5 mps 754 mmHg 37%
17:00 +17°C° 0 mm 5 mps 754 mmHg 39%
18:00 +17°C° 0 mm 4 mps 754 mmHg 42%
19:00 +17°C° 0 mm 4 mps 754 mmHg 43%
20:00 +15°C° 0 mm 4 mps 754 mmHg 43%
21:00 +15°C° 0 mm 4 mps 754 mmHg 44%
22:00 +14°C° 0 mm 4 mps 754 mmHg 45%
23:00 +14°C° 0 mm 3 mps 754 mmHg 47%
Show more